Location: Asbacherhof
(48.8543°N, 10.7903°E)
Time: 22:51:16
(UTC+00:00)

SL-16 R/B - Pass Details

Date: 26 May 2022
Orbit: 839 x 850 km, 71.0° (Epoch: 26 June)

Event Time Altitude Azimuth Distance (km) Brightness Sun altitude
Exits shadow 01:58:13 14° 225° (SW) 2,157 3.7 -11.0°
Maximum altitude 02:02:57 60° 302° (WNW) 966 2.5 -10.6°
Drops below altitude 10° 02:08:35 10° 23° (NNE) 2,479 6.0 -10.0°
Sets 02:11:06 0° 27° (NNE) 3,420 7.2 -9.7°
